Погода в Киренске

Погода в Киренске : погода сейчас, прогноз погоды и архив. Всё, что Вы хотите узнать о погоде в Киренске!

Хотите узнать прогноз погоды в Киренске? Тогда Вам сюда: Погода в Киренске

Поиск расширенной информации на нашем сайте:

Другие новости

Новости СМИ2

Главная страница сайта

Новости сайта

03.07.2017

Напоминаем, что на нашем специализированном сайте Метеоцентр.Азия вы можете получить высокодетализированные автоматические прогнозы погоды по пунктам России, СНГ и мира в авиационном формате (включающие направление и скорость ветра, видимость, явления погоды, количество и форму облачности, нижнюю и верхнюю границу облачности).


Погода в Киренске - сегодня

Время (UTC), дата Ветер
(°,м/с) 
Видим.   Явления Облачность Т
(°С)
Тd
(°С)
f(%) Тe
(°С)
Pmin
(гПа)
dP
(гПа)
Po
(мм)
O2
(г/м3)
Тmin Tmax R s Состояние
почвы
09 17.10.18 200 (Ю) 20000 м    10/6 600 м средняя 
[Sc|Ac As]
+3.9 -0.4 73 +5  1020.8  0.8  742  295           
12 17.10.18 270 (З) н/о    10/3 600 м средняя 
[Sc|Ac As]
+0.2 -0.8 93 +1  1022.3  742  299    +4.6       
15 17.10.18 240 (ЮЗ) н/о  местами туман поземный  10/3 600 м средняя, верхняя 
[Sc|Ac trans|Ci fib]
-2.6 -2.7 99 -2  1023.1  0.4  743  302           
18 17.10.18 тихо ()   н/о  местами туман поземный  10/6 600 м средняя 
[Sc|Ac As]
-1.3 -1.6 98 -1  1023.7  0.8  743  301           
21 17.10.18 160 (Ю) н/о    10/8 600 м средняя 
[Sc|Ac As]
-1.9 -2 99 -1  1024  0.2  743  302           
00 18.10.18 тихо ()   20000 м    10/8 600 м кучево-дожд., средняя, верхняя 
[Cb cap|Ac trans|Ci fib]
-2.5 -2.5 100 -3  1024.9  0.9  744  303  -3.3         
03 18.10.18 тихо ()   20000 м    10/8 600 м кучево-дожд., средняя, верхняя 
[Cb cap|Ac trans|Ci fib]
+1.9 +0.5 90 +2  1024.8  0.4  744  298           
06 18.10.18 150 (ЮВ) 20000 м    8/5 600 м кучево-дожд., средняя, верхняя 
[Cb cap|Ac trans|Ci fib]
+7.3 +0.6 62 +8  1022.5  -1.7  743  292           
09 18.10.18 тихо ()   20000 м    10/3 600 м средняя, верхняя 
[Sc diur, vesp|Ac trans|Cs]
+5.5 +0.2 69 +6  1021.3  0.4  742  293           
12 18.10.18 тихо ()   н/о    10/5 600 м средняя, верхняя 
[Sc diur, vesp|Ac trans|Cs]
-0.3 -1.2 94 -0  1021.2  -0.8  742  299    +8.1       
15 18.10.18 170 (Ю) н/о    10/3 600 м средняя 
[Sc|Ac As]
+0.2 -0.9 92 +1  1020.3  -0.8  741  298           
18 18.10.18 210 (ЮЗ) н/о    10/4 600 м средняя 
[Sc|Ac As]
+0.1 -0.8 94 +1  1020.5  0.1  741  299           
21 18.10.18 тихо ()   н/о    10/6 600 м кучево-дожд., средняя 
[Cb cap|Ac As]
+0.2 -0.2 97 1021.3  0.9  742  299           
00 19.10.18 210 (ЮЗ) 20000 м  {ливн. осадки}  10/3 600 м средняя 
[Sc diur, vesp|Ac As]
+0.1 -0.2 98 +1  1022.5  1.1  743  299  -1    0.0     
03 19.10.18 060 (СВ) 20000 м    10/8 600 м кучево-дожд., верхняя 
[Cb cap|Ci fib]
+3.2 +1 85 +4  1022.9  0.7  743  296           
06 19.10.18 020 (С) 20000 м    10/8 600 м кучево-дожд., верхняя 
[Cb cap|Ci fib]
+4.8 -1.9 62 +4  1022.5  -0.2  743  294           
09 19.10.18 030 (СВ) 20000 м    10/9 600 м кучево-дожд., верхняя 
[Cb cap|Ci fib]
+3.2 -2.6 66 +4  1022.4  -0.2  743  296           
12 19.10.18 тихо ()   н/о    10/8 600 м кучево-дожд., средняя, верхняя 
[Cb cap|Ac trans|Ci fib]
-0.2 -2.8 83 -0  1022.8  743  300    +5.3       
15 19.10.18 340 (С) н/о    10/6 600 м кучево-дожд., средняя, верхняя 
[Cb cap|Ac trans|Ci fib]
-2.9 -4.1 91 -4  1022.5  -0.6  742  303           
18 19.10.18 190 (Ю) н/о    10/3 600 м средняя, верхняя 
[Sc diur, vesp|Ac trans|Ci fib]
-2.8 -4.6 87 -2  1021.5  -1  742  302           
21 19.10.18 340 (С) н/о    8/3 600 м средняя, верхняя 
[Sc diur, vesp|Ac trans|Ci fib]
-2.8 -4.4 89 -4  1020.2  -1.3  741  302           
00 20.10.18 010 (С) 20000 м    10/3 600 м средняя, верхняя 
[Sc diur, vesp|Ac trans|Ci fib]
-2.3 -4.1 87 -3  1019.5  -0.6  740  301  -3.9         
03 20.10.18 030 (СВ) 20000 м    8/0 средняя, верхняя 
[Ac trans|Ci fib]
+1.2 -3.4 71 +1  1018.6  -0.5  740  297           
06 20.10.18 030 (СВ) 20000 м    10/0 средняя, верхняя 
[Ac trans|Ci fib]
+3.8 -4.9 53 +2  1017.1  -1.1  739  294           
09 20.10.18 010 (С) 20000 м    10/3 1000 м средняя, верхняя 
[Sc|Ac trans|Ci fib]
+2.9 -5.2 55 +2  1017.6  0.4  739  295           
Время (UTC), дата Ветер
(°,м/с) 
Видим.   Явления Облачность Т
(°С)
Тd
(°С)
f(%) Тe
(°С)
Pmin
(гПа)
dP
(гПа)
Po
(мм)
O2
(г/м3)
Тmin Tmax R s Состояние
почвы

Для получения пояснительной информации подведите курсор к названию столбца.

ПОГОДА в Киренске - архив

Всё, что Вы хотите узнать о погоде в Киренске - удобно и подробно!

Выберите нужную дату (начиная с 1 января 2015* года) и нажмите кнопку "Найти".
Будут отображены архивные сводки погоды по пункту Киренск, начиная с указанной даты.


Отображать данные в формате CSV (для использования в таблицах Excel)


Внимание! Наш архив погоды предназначен исключительно для личного некоммерческого использования в познавательных целях. Если Вам необходимы официальные справки о состоянии погоды (для производственных, юридических, коммерческих и т.п. целей), обращайтесь в органы Росгидромета.

*Примечание: данная дата относится к архиву по метеостанциям СССР (Россия, СНГ, Балтия).
Архив по метеостанциям Зарубежной Европы и Азии (кроме Китая) хранится 10 дней, по другим регионам земного шара (Китай, Африка, Америка, Австралия, Океания) - 1 день.

Киренск - район местоположения метеостанции


Название, широта, долгота, высота метеостанции:
Киренск 57.8°ш. 108.1°д. 259 м над ур. моря [Российская Федерация]

Дополнительная информация

В oтличие oт бoльшинства пoгoдных сайтoв мы публикуем пoдрoбную метеoинфoрмацию в детальнoм прoфессиoнальнoм фoрмате.

Характеристики температуры и влажнoсти вoздуха измеряются на высoте 2 м в тени вдали oт зданий и деревьев.
Скoрoсть ветра измеряется на высoте 10 м (на урoвне рoста челoвека скoрoсть ветра ниже в 1.5-2 раза). Если метеoстанция нахoдится в гoрoде или в лесу, тo скoрoсть ветра занижена на 2-4 м/с пo сравнению с oткрытым местoм. Скoрoсть ветра над акватoриями крупных рек и oзёр, а также на вершинах хoлмoв на 2-5 м/с выше, чем в oбычных услoвиях.
Атмoсфернoе давление в разных тoчках местнoсти мoжет значительнo oтличаться oт давления на метеoстанции, в зависимoсти oт услoвий рельефа (при пoдъёме на 10 м давление пoнижается примернo на 1 мм рт.ст.).